Location: Bessat
(45.8735°N, 1.9924°E)
Time: 09:20:22
(UTC+00:00)

Cosmos 1271 Rocket - Pass Details

Date: 11 May 2021
Orbit: 497 x 545 km, 81.2° (Epoch: 15 June)

Event Time Altitude Azimuth Distance (km) Brightness Sun altitude
Exits shadow 21:54:39 31° 226° (SW) 968 3.9 -21.0°
Maximum altitude 21:56:13 51° 284° (WNW) 697 3.5 -21.1°
Drops below altitude 10° 22:00:08 10° 1° (N) 1,825 6.3 -21.5°
Sets 22:02:22 0° 7° (N) 2,721 7.3 -21.6°
